Location: Poughquag
(41.6090°N, 73.6820°W)
Time: 02:37:45
(UTC-04:00)

Tiangong 2 - Visible Passes

Search period start: 28 May 2017 00:00
Search period end: 07 June 2017 00:00
Orbit: 379 x 390 km, 42.8° (Epoch: 27 May)

Date Brightness Start Highest point End Pass type
(mag) Time Alt. Az. Time Alt. Az. Time Alt. Az.
28 May 1.3 20:59:25 10° W 21:02:37 75° N 21:05:48 10° E visible
28 May 1.1 22:36:15 10° WNW 22:39:21 80° NNW 22:39:21 80° NNW visible
29 May 1.3 21:36:35 10° W 21:39:46 71° N 21:42:18 15° E visible
29 May 3.4 23:13:23 10° W 23:14:30 19° W 23:14:30 19° W visible
30 May 0.9 22:13:41 10° W 22:16:53 74° SSW 22:17:24 56° SE visible
31 May 1.1 21:14:00 10° WNW 21:17:12 83° N 21:20:17 11° E visible
31 May 3.0 22:50:55 10° W 22:52:29 22° WSW 22:52:29 22° WSW visible
01 Jun 1.4 21:51:07 10° W 21:54:13 49° SSW 21:55:21 31° SE visible
02 Jun 3.1 22:28:39 10° W 22:30:26 18° SW 22:30:26 18° SW visible
03 Jun 2.2 21:28:36 10° W 21:31:28 31° SSW 21:33:21 17° SSE visible
04 Jun 3.6 22:07:08 10° SW 22:08:06 11° SW 22:08:29 11° SSW visible
05 Jun 3.1 21:06:16 10° W 21:08:38 19° SSW 21:10:59 10° SSE visible
